Location: Civry
(47.2902°N, 4.6156°E)
Time: 15:07:15
(UTC+00:00)

SPOT 5 - Pass Details

Date: 09 April 2020
Orbit: 624 x 814 km, 98.3° (Epoch: 03 June)

Event Time Altitude Azimuth Distance (km) Brightness Sun altitude
Exits shadow 20:31:36 29° 67° (ENE) 1,144 3.6 -20.4°
Maximum altitude 20:31:39 29° 66° (ENE) 1,144 3.7 -20.4°
Drops below altitude 10° 20:35:24 10° 6° (N) 2,010 5.6 -20.9°
Sets 20:37:48 0° 355° (N) 2,929 6.7 -21.2°
